This demonstration page uses our WeatherBlox Daily Observations layout. Learn more.

Left ArrowRight Arrow

39.51506, -84.39828

Hourly Observations for June 23, 2022

Temp ( °F °C ) Dew Point ( °F °C ) Humidity (%) Winds ( mph kmh ) Pressure ( in mb ) Visibility ( mi km ) Precip ( " mm )
12:15 am 00:15 Clear 72 22 54 12.3 54 54 N 3 6 29.98 1015 10 16 0.00 0.00
12:35 am 00:35 Clear 68 20.1 59 15 73 73 Calm 29.99 1016 10 16 0.00 0.00
12:55 am 00:55 Clear 64 18 59 15.1 83 83 Calm 30.00 1016 10 16 0.00 0.00
1:15 am 01:15 Clear 66 18.7 60 15.3 81 81 Calm 29.99 1015 10 16 0.00 0.00
1:35 am 01:35 Clear 64 17.9 59 15.2 84 84 Calm 29.99 1016 10 16 0.00 0.00
1:55 am 01:55 Clear 64 17.7 61 16.3 92 92 Calm 29.99 1016 10 16 0.00 0.00
2:15 am 02:15 Clear 60 15.7 60 15.6 99 99 WNW 3 6 29.99 1016 10 16 0.00 0.00
2:35 am 02:35 Clear 61 16.3 61 16.1 99 99 Calm 29.98 1015 10 16 0.00 0.00
2:55 am 02:55 Clear 61 16 61 16 100 100 Calm 29.98 1015 10 16 0.00 0.00
3:15 am 03:15 Clear 61 16 61 16 100 100 Calm 29.98 1015 10 16 0.00 0.00
3:35 am 03:35 Clear 59 15 N/A N/A Calm 29.99 1015 10 16 0.00 0.00
3:55 am 03:55 Clear 59 15 N/A N/A Calm 29.99 1015 10 16 0.00 0.00
4:15 am 04:15 Clear 59 15 N/A N/A Calm 29.98 1015 10 16 0.00 0.00
4:35 am 04:35 Clear 59 15 N/A N/A Calm 29.98 1015 10 16 0.00 0.00
4:55 am 04:55 Clear 59 15 N/A N/A Calm 29.98 1015 10 16 0.00 0.00
5:15 am 05:15 Clear 59 15 N/A N/A Calm 29.98 1015 10 16 0.00 0.00
5:35 am 05:35 Clear 57 14 N/A N/A Calm 29.98 1015 10 16 0.00 0.00
5:55 am 05:55 Clear 59 14.9 58 14.7 99 99 NNE 6 9 29.98 1015 10 16 0.00 0.00
6:15 am 06:15 Sunny 61 16.2 58 14.3 89 89 N 6 9 29.98 1015 10 16 0.00 0.00
6:35 am 06:35 Sunny 63 17 57 13.7 81 81 NNE 6 9 29.98 1015 10 16 0.00 0.00
6:55 am 06:55 Sunny 63 17.3 57 14 81 81 N 7 11 29.98 1015 10 16 0.00 0.00
7:15 am 07:15 Sunny 65 18.1 57 13.7 76 76 N 9 15 29.99 1016 10 16 0.00 0.00
7:35 am 07:35 Sunny 66 18.7 57 14.1 75 75 N 8 13 29.99 1015 10 16 0.00 0.00
7:55 am 07:55 Sunny 68 19.8 58 14.7 73 73 NNW 6 9 29.99 1015 10 16 0.00 0.00
8:15 am 08:15 Sunny 70 20.9 58 14.2 66 66 N 6 9 29.99 1016 10 16 0.00 0.00
8:35 am 08:35 Sunny 71 21.6 59 14.9 66 66 N 10 17 29.99 1016 10 16 0.00 0.00
8:55 am 08:55 Sunny 72 22.3 59 14.9 63 63 NNE 7 11 30.00 1016 10 16 0.00 0.00
9:15 am 09:15 Sunny 73 22.8 58 14.7 60 60 N 7 11 30.00 1016 10 16 0.00 0.00
9:35 am 09:35 Sunny 74 23.4 58 14.6 58 58 N 7 11 30.00 1016 10 16 0.00 0.00
9:55 am 09:55 Sunny 76 24.2 58 14.7 55 55 N 10 17 29.99 1016 10 16 0.00 0.00
10:15 am 10:15 Sunny 77 24.9 58 14.4 52 52 N 12 19 30.00 1016 10 16 0.00 0.00
10:35 am 10:35 Sunny 77 25.1 57 13.8 50 50 N 10 17 29.99 1016 10 16 0.00 0.00
10:55 am 10:55 Sunny 78 25.6 57 13.7 48 48 NNE 13 20 29.99 1016 10 16 0.00 0.00
11:15 am 11:15 Sunny 79 26 57 13.9 47 47 NNE 12 19 29.99 1016 10 16 0.00 0.00
11:35 am 11:35 Sunny 80 26.6 58 14.4 47 47 N 8 13 29.99 1016 10 16 0.00 0.00
11:55 am 11:55 Sunny 80 26.7 57 13.9 45 45 N 12 19 29.99 1016 10 16 0.00 0.00
12:15 pm 12:15 Sunny 81 27.2 58 14.3 45 45 N 12 19 29.99 1016 10 16 0.00 0.00
12:35 pm 12:35 Sunny 81 27.3 56 13.4 42 42 N 9 15 29.99 1016 10 16 0.00 0.00
12:55 pm 12:55 Sunny 81 27.4 56 13.3 42 42 N 9 15 29.99 1015 10 16 0.00 0.00
1:15 pm 13:15 Hazy 82 27.9 56 13.5 41 41 NW 9 15 29.99 1015 4 6 0.00 0.00
1:35 pm 13:35 Sunny 83 28.4 56 13.3 39 39 N 8 13 29.99 1015 10 16 0.00 0.00
1:55 pm 13:55 Sunny 83 28.4 52 11.1 34 34 N 10 17 29.98 1015 10 16 0.00 0.00
2:15 pm 14:15 Sunny 84 28.9 52 11.2 33 33 NNW 12 19 29.97 1015 10 16 0.00 0.00
2:35 pm 14:35 Sunny 84 28.8 53 11.4 34 34 N 3 6 29.97 1015 10 16 0.00 0.00
2:55 pm 14:55 Sunny 84 28.9 52 10.9 33 33 N 6 9 29.96 1015 10 16 0.00 0.00
3:15 pm 15:15 Sunny 84 29.1 51 10.5 31 31 NNW 8 13 29.96 1015 10 16 0.00 0.00
3:35 pm 15:35 Sunny 84 29 50 10.2 31 31 N 13 20 29.96 1015 10 16 0.00 0.00
3:55 pm 15:55 Sunny 85 29.3 48 9.1 28 28 NE 10 17 29.95 1014 10 16 0.00 0.00
4:15 pm 16:15 Sunny 85 29.3 50 9.9 30 30 NNE 8 13 29.95 1014 10 16 0.00 0.00
4:35 pm 16:35 Sunny 85 29.5 49 9.4 29 29 N 10 17 29.94 1014 10 16 0.00 0.00
4:55 pm 16:55 Sunny 85 29.4 49 9.2 28 28 NE 10 17 29.94 1014 10 16 0.00 0.00
5:15 pm 17:15 Sunny 85 29.5 47 8.6 27 27 NNE 9 15 29.94 1014 10 16 0.00 0.00
5:35 pm 17:35 Sunny 85 29.3 46 7.9 26 26 NNE 9 15 29.94 1014 10 16 0.00 0.00
5:55 pm 17:55 Sunny 85 29.4 46 7.5 25 25 N 8 13 29.94 1014 10 16 0.00 0.00
6:15 pm 18:15 Sunny 85 29.2 45 7.1 25 25 N 7 11 29.94 1014 10 16 0.00 0.00
6:35 pm 18:35 Sunny 85 29.2 46 7.5 26 26 N 5 7 29.94 1014 10 16 0.00 0.00
6:55 pm 18:55 Sunny 84 29 44 6.9 25 25 NW 3 6 29.94 1014 10 16 0.00 0.00
7:15 pm 19:15 Sunny 84 28.8 46 7.9 27 27 NNE 5 7 29.95 1014 10 16 0.00 0.00
7:35 pm 19:35 Sunny 83 28.3 48 9 30 30 N 6 9 29.96 1014 10 16 0.00 0.00
7:55 pm 19:55 Sunny 82 27.5 49 9.6 33 33 N 5 7 29.97 1015 10 16 0.00 0.00
8:15 pm 20:15 Sunny 80 26.8 53 11.8 39 39 NNW 3 6 29.97 1015 10 16 0.00 0.00
8:35 pm 20:35 Sunny 77 25 57 14.1 51 51 NNW 5 7 29.96 1015 10 16 0.00 0.00
8:55 pm 20:55 Sunny 73 22.8 57 14.1 58 58 NNW 3 6 29.97 1015 10 16 0.00 0.00
9:15 pm 21:15 Clear 67 19.6 58 14.6 73 73 NNW 5 7 29.98 1015 10 16 0.00 0.00
9:35 pm 21:35 Clear 68 20 57 13.9 68 68 Calm 29.98 1015 10 16 0.00 0.00
9:55 pm 21:55 Clear 65 18.3 58 14.2 77 77 Calm 29.99 1016 10 16 0.00 0.00
10:15 pm 22:15 Clear 63 17.4 55 12.5 73 73 NNE 3 6 29.99 1016 10 16 0.00 0.00
10:35 pm 22:35 Clear 64 18 55 12.6 71 71 N 5 7 30.00 1016 10 16 0.00 0.00
10:55 pm 22:55 Clear 64 17.6 55 12.7 73 73 N 5 7 29.99 1016 10 16 0.00 0.00
11:15 pm 23:15 Clear 62 16.9 55 12.8 77 77 NW 3 6 30.00 1016 10 16 0.00 0.00
11:35 pm 23:35 Clear 61 16.2 55 12.7 80 80 Calm 30.00 1016 10 16 0.00 0.00
11:55 pm 23:55 Clear 59 15.1 55 12.8 86 86 Calm 30.01 1016 10 16 0.00 0.00

Powered by AerisWeather